Flag for Moldova Weather past 2 weeks in Bălți, Moldova

Now
52 °F

Cool.


Feels Like: 49 °F
Forecast: 46 / 53 °F
Wind: 8 mph from Southeast

Location: Baltsi-Leadoveni - The North of Moldova

Current Time: Mar 27, 2015 at 4:08:52 PM

Latest Report: Mar 27, 2015 at 3:30 PM


Visibility: N/A

Pressure: 29.86 "Hg

Humidity: 67%

Dew point: 41 °F

Location of BălțiLocation

Historic Weather in Bălți — Graph

°F

Bălți temperature yesterday

Maximum temperature yesterday: 61 °F (at 1:30 PM)
Minimum temperature yesterday: 39 °F (at 3:00 AM)
Average temperature yesterday: 50 °F

Past Weeks' High & Low Weather Summary

 TemperatureHumidityPressure
High61 °F (Mar 26, 1:30 PM)100% (Mar 12, 8:30 PM)30.72 "Hg (Mar 12, 8:30 PM)
Low27 °F (Mar 23, 6:00 AM)26% (Mar 23, 3:00 PM)29.86 "Hg (Mar 27, 4:00 AM)
Average41 °F72%30.21 "Hg
* Reported Mar 12 3:00 PM — Mar 27 3:00 PM, Bălți, Weather by CustomWeather, © 2015

Note: Actual official high and low records may vary slightly from our data, if they occured in-between our weather recording intervals... More about our weather records

Advertising

Bălți weather history for previous 24 hours

 ConditionsComfort  
Time TempWeatherWind HumidityBarometerVisibility
3:00 PM
Fri, Mar 27
52 °FCool.8 mph67%29.89 "HgN/A
2:00 PM52 °FCool.10 mph67%29.89 "HgN/A
1:00 PM50 °FCool.12 mph71%29.89 "HgN/A
12:00 PM50 °FCool.8 mph71%29.89 "HgN/A
11:00 AM48 °FCool.13 mph76%29.89 "HgN/A
10:00 AM46 °FCool.10 mph82%29.89 "HgN/A
9:30 AM45 °FQuite cool.10 mph81%29.89 "HgN/A
9:00 AM43 °FQuite cool.10 mph87%29.89 "HgN/A
8:00 AM41 °FQuite cool.8 mph87%29.86 "HgN/A
7:30 AM39 °FChilly.10 mph93%29.86 "HgN/A
7:00 AM39 °FChilly.8 mph93%29.86 "HgN/A
6:00 AM39 °FChilly.10 mph93%29.86 "HgN/A
5:00 AM39 °FChilly.9 mph93%29.86 "HgN/A
4:30 AM41 °FQuite cool.13 mph87%29.86 "HgN/A
4:00 AM41 °FQuite cool.10 mph87%29.86 "HgN/A
3:00 AM41 °FQuite cool.9 mph93%29.89 "HgN/A
2:00 AM43 °FQuite cool.10 mph87%29.89 "HgN/A
1:00 AM45 °FQuite cool.12 mph81%29.92 "HgN/A
12:30 AM45 °FQuite cool.12 mph81%29.92 "HgN/A
12:00 AM45 °FQuite cool.12 mph81%29.92 "HgN/A
11:00 PM
Thu, Mar 26
45 °FQuite cool.12 mph81%29.95 "HgN/A
10:30 PM46 °FCool.12 mph76%29.95 "HgN/A
10:00 PM46 °FCool.13 mph76%29.95 "HgN/A
9:00 PM48 °FCool.13 mph71%29.95 "HgN/A
8:00 PM48 °FCool.13 mph71%29.95 "HgN/A
7:30 PM50 °FCool.14 mph67%29.95 "HgN/A
7:00 PM52 °FCool.12 mph62%29.95 "HgN/A
6:30 PM54 °FCool.13 mph58%29.95 "HgN/A
6:00 PM55 °FRefreshingly cool.13 mph55%29.95 "HgN/A
5:00 PM57 °FSunny.14 mph51%29.95 "Hg10 mi
4:30 PM59 °FSunny.15 mph48%29.95 "Hg10 mi
4:00 PM59 °FSunny.15 mph48%29.95 "Hg10 mi
Weather by CustomWeather, © 2015

See weather overviewHow to use our weather pages